#timestamp,LO_Frequency,Hit,StdDev 
1507042815.4,286046999.2,N
1507042835.2,286046999.0,N
1507042855.0,286046999.6,N
1507042855.9,286046999.6,N
1507042875.8,286046998.4,N
1507042895.6,286046999.0,N
1507042915.5,286046999.1,N
1507042935.3,286046997.0,N
1507042955.1,286046997.3,N
1507042975.9,286046997.6,N
1507042995.7,286046995.0,Y
1507043015.6,286046997.6,P
1507043035.4,286046998.0,N
1507043055.2,286046997.3,P
1507043075.1,286046997.8,N
1507043076.0,286046997.8,N
1507043095.8,286046994.9,Y
1507043115.7,286046998.9,P
1507043135.5,286046997.0,P
1507043155.4,286046997.1,P
1507043175.2,286046997.2,Y
1507043195.0,286047001.0,P
1507043195.9,286047001.0,N
1507043215.8,286047000.0,N
1507043235.6,286047000.8,N
1507043255.4,286046998.6,N
1507043275.3,286047001.0,N
1507043295.1,286047000.0,N
1507043315.9,286047000.7,N
1507043335.7,286047000.5,N
1507043355.5,286046998.5,N
1507043375.4,286046998.2,N
1507043395.2,286047001.2,N
1507043415.1,286046998.4,N
1507043416.0,286046998.4,N
1507043435.8,286046998.5,N
1507043455.6,286046998.1,N
1507043475.5,286046998.5,N
1507043495.3,286046996.5,N
1507043515.2,286046999.3,N
1507043535.9,286047000.7,N
1507043555.7,286046999.0,N
1507043575.6,286046996.5,N
1507043595.4,286046999.2,N
1507043615.3,286046996.9,N
1507043635.1,286046996.6,N
1507043636.0,286046996.6,N
1507043655.8,286046996.9,N
1507043675.7,286046996.9,N
1507043695.5,286046996.5,N
1507043715.4,286046999.6,N
1507043735.2,286046996.9,N
1507043755.0,286046996.6,N
1507043755.9,286046996.6,N
1507043775.8,286046996.9,N
1507043795.6,286046997.3,N
1507043815.4,286046997.8,N
1507043835.3,286046999.2,N
1507043855.1,286046997.0,N
1507043875.9,286046999.0,N
1507043895.7,286046996.7,N
1507043915.5,286046997.7,N
1507043935.4,286046997.2,N
1507043955.2,286046997.4,N
1507043975.1,286046997.1,N
1507043976.0,286046997.1,N
1507043995.8,286046999.2,N
1507044015.6,286046999.2,N
1507044035.5,286046999.2,N
1507044055.3,286046999.5,N
1507044075.2,286046996.6,N
1507044095.9,286046999.6,N
1507044115.7,286046997.4,N
1507044135.6,286046997.8,N
1507044155.4,286046997.3,N
1507044175.3,286046995.0,Y
1507044195.1,286046999.3,P
1507044196.0,286046999.3,N
1507044215.8,286047000.8,N
1507044235.7,286046999.6,N
1507044255.5,286046998.8,N
1507044275.4,286046998.7,N
1507044295.2,286046998.4,N
1507044315.0,286047001.0,N
1507044315.9,286047001.0,N
1507044335.8,286046998.5,N
1507044355.6,286047000.8,N
1507044375.5,286046999.2,N
1507044395.3,286046997.1,N
1507044415.1,286046999.2,N
1507044435.9,286046995.0,Y
1507044455.7,286046997.8,P
1507044475.5,286046996.6,P
1507044495.4,286046999.1,N
1507044515.2,286046998.7,N
1507044535.1,286046998.6,N
1507044536.0,286046998.6,N
1507044555.8,286046998.5,N
1507044575.6,286047000.7,N
1507044595.5,286047000.4,N
1507044615.3,286047000.0,N
1507044635.2,286047002.7,N
1507044655.9,286047002.6,N
1507044675.7,286047002.6,N
1507044695.6,286046999.9,N
1507044715.4,286047002.0,N
1507044735.3,286047002.8,N
1507044755.1,286047002.4,N
1507044756.0,286047002.4,N
1507044775.8,286047002.2,N
1507044795.7,286047001.6,N
1507044815.5,286047002.3,N
1507044835.4,286047002.7,N
1507044855.2,286047002.7,N
1507044875.0,286046999.8,N
1507044875.9,286046999.8,N
1507044895.8,286047002.3,N
1507044915.6,286047002.3,N
1507044935.5,286047002.1,N
1507044955.3,286046999.7,N
1507044975.1,286047002.8,N
1507044995.9,286047001.6,N
1507045015.7,286047002.1,N
1507045035.6,286047003.9,N
1507045055.4,286047003.0,N
1507045075.2,286047003.9,N
1507045095.1,286047003.2,N
1507045096.0,286047003.2,N
1507045115.8,286047003.0,N
1507045135.7,286047003.7,Y
1507045155.5,286047002.3,P
1507045175.3,286047002.7,P
1507045195.2,286047000.0,N
1507045215.0,286047001.1,N
1507045215.9,286047001.1,N
1507045235.8,286047002.5,N
1507045255.6,286047002.3,N
1507045275.4,286047001.6,N
1507045295.3,286047001.9,N
1507045315.1,286047003.7,Y
1507045335.9,286047000.5,P
1507045355.7,286047000.6,N
1507045375.5,286046998.4,N
1507045395.4,286047001.2,N
1507045415.2,286046998.3,N
1507045435.0,286046998.3,N
1507045436.0,286046998.3,N
1507045455.8,286047000.4,N
1507045475.6,286047001.1,N
1507045495.5,286047002.5,N
1507045515.3,286047000.1,N
1507045535.2,286047002.2,N
1507045555.9,286047002.0,N
1507045575.7,286047001.5,N
1507045595.6,286047003.0,N
1507045615.4,286047001.6,N
1507045635.2,286047002.2,N
1507045655.1,286047002.6,N
1507045656.0,286047002.6,N
1507045675.8,286047001.7,N
1507045695.7,286047000.4,N
1507045715.5,286047000.2,N
1507045735.3,286046998.7,N
1507045755.2,286047000.4,N
1507045775.0,286047000.7,N
1507045775.9,286047000.7,N
1507045795.8,286047000.4,N
1507045815.6,286047000.1,N
1507045835.4,286046999.8,N
1507045855.3,286047000.2,N
1507045875.1,286047000.1,N
1507045895.9,286047000.9,N
1507045915.7,286047001.0,N
1507045935.5,286047002.4,N
1507045955.4,286047001.8,N
1507045975.2,286047002.0,N
1507045995.1,286047002.2,N
1507045996.0,286047002.2,N
1507046015.8,286047001.7,N
1507046035.6,286047004.3,Y
1507046055.5,286047000.7,P
1507046075.3,286047000.2,N
1507046095.2,286047001.6,P
1507046115.9,286047002.4,Y
1507046135.7,286047000.6,P
1507046155.6,286046998.2,P
1507046175.4,286046998.4,N
1507046195.3,286047000.8,N
1507046215.1,286047000.4,N
1507046216.0,286047000.4,N
1507046235.8,286047002.8,N
1507046255.7,286047002.1,N
1507046275.5,286047001.6,N
1507046295.4,286047001.0,N
1507046315.2,286046998.4,N
1507046335.0,286047001.2,N
1507046335.9,286047001.2,N
1507046355.8,286046998.5,N
1507046375.6,286046999.9,N
1507046395.4,286047000.1,N
